STARLINK-11439 [DTC] (62419 NORAD) Tracking and Keplerian Element Data

This shows tracking and keplerian element data for the satellite.

Feedback or suggestion? Click here.




ElementValue
Catalog62419
NameSTARLINK-11439 [DTC]
Epoch Orbit629
Epoch Day35.06272599
Epoch Year2025
RAAN50.7521
Inclination42.9982
Eccentricity0.000154
Argument of Perigee276.7551
Mean Anonmoly83.3144
Mean Motion15.77861483
Decay Rate1.339E-05
L11 62419U 24249L 25035.06272599 .00001339 00000+0 10558-4 0 9996
L22 62419 42.9982 50.7521 0001540 276.7551 83.3144 15.77861483 6291



Live tracking and technical data element details for STARLINK-11439 [DTC] (NORAD 62419). STARLINK-11439 [DTC] can be tracked NOW for your location showing map with azimuth and elevation plus other details from your city location.







IsCatalogInMostPopularTable: catalog: 62419, numindb: 12
Update: records affected: 1



GetName: 62419 STARLINK-11439 [DTC]

Hit Count: updated at: Mon, 19 May 2025 02:32:00 GMT